Regional Weather Roundup
Issued by NWS

Home | Current Version | Previous Version | Graphics & Text | Print | Product List | Glossary On
Versions: 1 2 3 4 5 6 7 8 9 10 11 12 13 14 15 16 17 18 19 20 21 22 23 24 25 26 27 28 29 30 31 32 33 34 35 36 37 38 39 40 41 42 43 44 45 46 47 48 49
000
ASUS45 KBOU 210107
RWRCO

WEATHER ROUNDUP FOR COLORADO
NATIONAL WEATHER SERVICE DENVER/BOULDER CO
600 PM MST SAT DEC 20 2014

NOTE: "FAIR" INDICATES FEW OR NO CLOUDS BELOW 12000 FEET WITH NO
SIGNIFICANT WEATHER AND/OR OBSTRUCTIONS TO VISIBILITY.

COZ001>005-013-030-031-210200-
...NORTHWEST COLORADO...

CITY           SKY/WX    TMP DP  RH WIND       PRES   REMARKS
CRAIG          LGT SNOW  29  27  92 CALM      30.06S FOG
HAYDEN         CLOUDY    27  25  93 E6        30.05S WCI  20
MEEKER         LGT SNOW  31  28  89 W5        30.06F FOG     WCI  26
MOUNT WERNER   NOT AVBL
STEAMBOAT SPGS CLOUDY    25  24  95 CALM      30.04F
WALDEN         CLOUDY    28  21  74 S13       30.00S WCI  18
$$

COZ006>008-011-210200-
...WEST CENTRAL VALLEYS...

CITY           SKY/WX    TMP DP  RH WIND       PRES   REMARKS
GRAND JUNCTION CLOUDY    34  29  82 NW6       30.11F WCI  29
MONTROSE       CLOUDY    34  24  67 NW5       30.12R WCI  30
EAGLE          FLURRIES  30  25  80 CALM      30.09S
RIFLE          LGT SNOW  31  28  89 CALM      30.12R FOG
DELTA          CLOUDY    38  27  63 NE7       30.11S
NUCLA          CLOUDY    36  27  69 CALM      30.15R
$$

COZ017>023-064>068-210200-
...SOUTHWEST COLORADO...

CITY           SKY/WX    TMP DP  RH WIND       PRES   REMARKS
DURANGO        CLOUDY    34  26  72 CALM      30.10R
CORTEZ         CLOUDY    35  28  75 CALM      30.11S
PAGOSA SPRINGS CLOUDY    32  23  70 E5        30.09F WCI  27
TELLURIDE      CLOUDY    28  20  75 W3        30.10S
WOLF CREEK PAS CLOUDY    16  16 100 MISG      30.08F
$$

COZ009-010-012-014-032>034-037-058>063-210200-
...CENTRAL COLORADO...

CITY           SKY/WX    TMP DP  RH WIND       PRES   REMARKS
ASPEN          CLOUDY    27  21  78 CALM      30.05F
BUENA VISTA    CLOUDY    33  15  47 W8        30.02R WCI  27
COPPER MTN     CLOUDY    19  14  79 W14       30.03S WCI   6
BERTHOUD PASS  CLOUDY    10   5  79 MISG      30.00S
COTTONWOOD PAS CLOUDY    32  14  47 NW7       30.02S WCI  26
GUNNISON       CLOUDY    25  12  58 CALM      30.11S
KREMMLING      CLOUDY    25  19  80 CALM      30.06S
LEADVILLE      FLURRIES  23  14  68 NW14      30.02S WCI  11
MONARCH PASS   CLOUDY    18  14  86 W24G37    30.13S WCI   0
SALIDA         CLOUDY    37  20  48 SW13G18   30.08S
SUNLIGHT       LGT SNOW  23  21  93 CALM      30.06F VSB 3/4
WILKERSON PASS CLOUDY    21  10  63 W12G17    30.03S WCI   9
$$

COZ069>075-210200-
...SAN LUIS VALLEY/SANGRE DE CRISTO MOUNTAINS...

CITY           SKY/WX    TMP DP  RH WIND       PRES   REMARKS
ALAMOSA        CLOUDY    22  16  78 SE5       30.04S WCI  16
LA VETA PASS   PTCLDY    21  12  68 SW10      30.01S WCI  10
SAGUACHE       CLOUDY    28  12  50 NE5       30.05F WCI  23
$$

COZ035-036-038>040-210200-
...NORTHERN COLORADO FRONT RANGE...

CITY           SKY/WX    TMP DP  RH WIND       PRES   REMARKS
DENVER INTL AP MOCLDY    34  22  61 SE10      29.93S WCI  26
DMNS CITY PARK   N/A     40  20  43 SW1G7     29.92F
AURORA         MOCLDY    33  23  65 S9        29.95R WCI  26
FRONT RANGE AP NOT AVBL
ERIE MUNI ARPT   N/A     34  21  59 CALM      29.94S
BOULDER MUN AP CLOUDY    37  21  52 W3        29.93F
CENTENNIAL     CLOUDY    37  22  54 S5        29.94S
BROOMFIELD     MOCLDY    39  19  45 NW8       29.93F
FORT COLLINS   CLOUDY    39  18  41 CALM      29.95F
LONGMONT       CLOUDY    34  23  63 N3        29.96S
$$

COZ041-046-047-076>085-087-088-210200-
...PIKES PEAK/PALMER DIVIDE AND SOUTHERN FOOTHILLS...

CITY           SKY/WX    TMP DP  RH WIND       PRES   REMARKS
COLO. SPRINGS  MOCLDY    40  17  39 E5        29.96R
A. F. ACADEMY  MOCLDY    40  17  39 NW5       29.96R
ELLICOTT       NOT AVBL
FALCON         MOCLDY    34  19  55 N5        29.97S WCI  30
FORT CARSON    MOCLDY    38  19  45 CALM      29.94R
LIMON          MOCLDY    33  18  53 CALM      29.96R
MONUMENT HILL  MOCLDY    30  21  69 S3        29.95S
TRINIDAD       CLEAR     36  16  44 W3        29.95R
$$

COZ042>045-048>051-090-091-210200-
...NORTHEAST COLORADO...

CITY           SKY/WX    TMP DP  RH WIND       PRES   REMARKS
GREELEY ARPT   MOCLDY    30  12  47 CALM      29.93S
AKRON          MOCLDY    37  24  59 E7        29.95R
BURLINGTON     CLEAR     36  28  73 E7        29.95F
WRAY           PTCLDY    35  30  82 W5        29.96S WCI  31
STERLING       PTCLDY    30  28  93 CALM      29.94F
HOLYOKE        PTCLDY    36  30  80 W8        29.95S
FORT MORGAN    PTCLDY    26  20  77 NW3       29.95R
$$

COZ086-089-092>099-210200-
...SOUTHEAST COLORADO...

CITY           SKY/WX    TMP DP  RH WIND       PRES   REMARKS
PUEBLO         PTCLDY    37  19  48 E6        29.92R
LA JUNTA       CLEAR     35  25  66 SE6       29.94S WCI  30
LAMAR          CLEAR     33  24  69 E9        29.95S WCI  25
SPRINGFIELD      N/A     35  24  64 SE3       29.96S
$$



USA.gov is the U.S. government's official web portal to all federal, state and local government web resources and services.